When you browse on this site, cookies collect data to enhance your experience and personalize the content and advertising you see.
Visit our Privacy Policy to learn more. By continuing to use the site, you agree to this use of cookies and data.
  • In Spain
  • List of Countries
  • For 7 days
  • Water Temperature
  • Satellite Maps
  • Weather Map
  • Weather Widgets
  • user-avatar
    Login

    Hourly Weather Blonnaya

    Today, 23 May, Thursday

    Time Temperature Precipitation Wind Pressure Humidity
    00:00 +14°C° 0 mm 0 mps 741 mmHg 88%
    01:00 +14°C° 0 mm 0 mps 741 mmHg 89%
    02:00 +14°C° 0 mm 1 mps 741 mmHg 90%
    03:00 +15°C° 0 mm 1 mps 741 mmHg 90%
    04:00 +15°C° 0 mm 1 mps 741 mmHg 90%
    05:00 +15°C° 0 mm 1 mps 741 mmHg 90%
    06:00 +16°C° 0 mm 1 mps 741 mmHg 85%
    07:00 +19°C° 0 mm 1 mps 741 mmHg 80%
    08:00 +20°C° 0 mm 2 mps 741 mmHg 75%
    09:00 +21°C° 0.2 mm 2 mps 741 mmHg 70%
    10:00 +23°C° 0.2 mm 2 mps 741 mmHg 65%
    11:00 +24°C° 0.2 mm 3 mps 741 mmHg 59%
    12:00 +25°C° 0.1 mm 3 mps 741 mmHg 57%
    13:00 +25°C° 0.1 mm 4 mps 741 mmHg 55%
    14:00 +26°C° 0.1 mm 4 mps 740 mmHg 53%
    15:00 +25°C° 0.2 mm 4 mps 740 mmHg 57%
    16:00 +25°C° 0.2 mm 3 mps 740 mmHg 60%
    17:00 +24°C° 0.2 mm 3 mps 740 mmHg 63%
    18:00 +23°C° 0.1 mm 2 mps 740 mmHg 71%
    19:00 +20°C° 0.1 mm 2 mps 740 mmHg 78%
    20:00 +19°C° 0.1 mm 1 mps 740 mmHg 86%
    21:00 +18°C° 0.1 mm 1 mps 740 mmHg 88%
    22:00 +18°C° 0.1 mm 1 mps 740 mmHg 90%
    23:00 +16°C° 0.1 mm 1 mps 741 mmHg 92%

    Tomorrow, 24 May, Friday

    Time Temperature Precipitation Wind Pressure Humidity
    00:00 +16°C° 0.6 mm 1 mps 741 mmHg 93%
    01:00 +16°C° 0.6 mm 1 mps 741 mmHg 94%
    02:00 +15°C° 0.6 mm 1 mps 741 mmHg 95%
    03:00 +15°C° 0.2 mm 1 mps 741 mmHg 95%
    04:00 +16°C° 0.2 mm 1 mps 741 mmHg 96%
    05:00 +16°C° 0.2 mm 2 mps 741 mmHg 96%
    06:00 +16°C° 0 mm 2 mps 742 mmHg 95%
    07:00 +17°C° 0 mm 2 mps 742 mmHg 93%
    08:00 +17°C° 0 mm 3 mps 742 mmHg 91%
    09:00 +18°C° 0.1 mm 3 mps 742 mmHg 89%
    10:00 +18°C° 0.1 mm 3 mps 742 mmHg 87%
    11:00 +19°C° 0.1 mm 3 mps 742 mmHg 84%
    12:00 +19°C° 0.1 mm 4 mps 742 mmHg 83%
    13:00 +19°C° 0.1 mm 4 mps 742 mmHg 81%
    14:00 +19°C° 0.1 mm 4 mps 742 mmHg 79%
    15:00 +19°C° 0.1 mm 4 mps 742 mmHg 82%
    16:00 +19°C° 0.1 mm 3 mps 742 mmHg 84%
    17:00 +19°C° 0.1 mm 3 mps 742 mmHg 87%
    18:00 +18°C° 0.1 mm 3 mps 741 mmHg 89%
    19:00 +17°C° 0.1 mm 3 mps 741 mmHg 91%
    20:00 +17°C° 0.1 mm 3 mps 741 mmHg 93%
    21:00 +16°C° 0 mm 3 mps 741 mmHg 94%
    22:00 +16°C° 0 mm 3 mps 741 mmHg 96%
    23:00 +14°C° 0 mm 3 mps 741 mmHg 97%

    Day after tomorrow, 25 May, Saturday

    Time Temperature Precipitation Wind Pressure Humidity
    00:00 +14°C° 1 mm 3 mps 741 mmHg 97%
    01:00 +14°C° 1 mm 3 mps 741 mmHg 97%
    02:00 +13°C° 1 mm 3 mps 741 mmHg 98%
    03:00 +15°C° 0.4 mm 2 mps 740 mmHg 98%
    04:00 +15°C° 0.4 mm 2 mps 740 mmHg 98%
    05:00 +15°C° 0.4 mm 2 mps 740 mmHg 98%
    06:00 +16°C° 0.3 mm 2 mps 740 mmHg 94%
    07:00 +17°C° 0.3 mm 2 mps 740 mmHg 90%
    08:00 +20°C° 0.3 mm 1 mps 740 mmHg 86%
    09:00 +21°C° 0.7 mm 1 mps 740 mmHg 82%
    10:00 +22°C° 0.7 mm 1 mps 740 mmHg 78%
    11:00 +23°C° 0.7 mm 1 mps 739 mmHg 75%
    12:00 +22°C° 0.7 mm 1 mps 739 mmHg 76%
    13:00 +22°C° 0.7 mm 1 mps 739 mmHg 78%
    14:00 +22°C° 0.7 mm 1 mps 738 mmHg 80%
    15:00 +21°C° 0.7 mm 1 mps 738 mmHg 82%
    16:00 +21°C° 0.7 mm 1 mps 738 mmHg 85%
    17:00 +20°C° 0.7 mm 1 mps 738 mmHg 87%
    18:00 +19°C° 0.3 mm 1 mps 737 mmHg 89%
    19:00 +18°C° 0.3 mm 1 mps 737 mmHg 91%
    20:00 +16°C° 0.3 mm 1 mps 737 mmHg 93%
    21:00 +15°C° 0 mm 2 mps 737 mmHg 93%
    22:00 +15°C° 0 mm 2 mps 737 mmHg 93%
    23:00 +14°C° 0 mm 2 mps 737 mmHg 93%

    26 May, Sunday

    Time Temperature Precipitation Wind Pressure Humidity
    00:00 +13°C° 0 mm 2 mps 737 mmHg 94%
    01:00 +11°C° 0 mm 3 mps 737 mmHg 96%
    02:00 +11°C° 0 mm 3 mps 737 mmHg 97%
    03:00 +10°C° 0 mm 3 mps 738 mmHg 96%
    04:00 +10°C° 0 mm 3 mps 738 mmHg 96%
    05:00 +9°C° 0 mm 3 mps 738 mmHg 95%
    06:00 +10°C° 0 mm 3 mps 738 mmHg 90%
    07:00 +11°C° 0 mm 3 mps 738 mmHg 85%
    08:00 +12°C° 0 mm 3 mps 738 mmHg 79%
    09:00 +13°C° 0 mm 4 mps 738 mmHg 74%
    10:00 +15°C° 0 mm 4 mps 738 mmHg 68%
    11:00 +17°C° 0 mm 4 mps 738 mmHg 63%
    12:00 +18°C° 0 mm 4 mps 738 mmHg 60%
    13:00 +18°C° 0 mm 4 mps 738 mmHg 58%
    14:00 +19°C° 0 mm 4 mps 737 mmHg 55%
    15:00 +18°C° 0.2 mm 4 mps 737 mmHg 61%
    16:00 +18°C° 0.2 mm 4 mps 737 mmHg 66%
    17:00 +17°C° 0.2 mm 4 mps 737 mmHg 71%
    18:00 +16°C° 0.7 mm 3 mps 737 mmHg 79%
    19:00 +13°C° 0.7 mm 3 mps 736 mmHg 87%
    20:00 +12°C° 0.7 mm 3 mps 736 mmHg 94%
    21:00 +11°C° 0.5 mm 3 mps 736 mmHg 94%
    22:00 +10°C° 0.5 mm 4 mps 736 mmHg 94%
    23:00 +8°C° 0.5 mm 4 mps 736 mmHg 94%

    27 May, Monday

    Time Temperature Precipitation Wind Pressure Humidity
    00:00 +8°C° 0.1 mm 4 mps 736 mmHg 94%
    01:00 +7°C° 0.1 mm 4 mps 736 mmHg 94%
    02:00 +7°C° 0.1 mm 4 mps 736 mmHg 94%
    03:00 +7°C° 0.2 mm 4 mps 737 mmHg 94%
    04:00 +6°C° 0.2 mm 4 mps 737 mmHg 94%
    05:00 +6°C° 0.2 mm 5 mps 738 mmHg 94%
    06:00 +6°C° 0 mm 5 mps 738 mmHg 92%
    07:00 +6°C° 0 mm 5 mps 738 mmHg 90%
    08:00 +6°C° 0 mm 5 mps 739 mmHg 88%
    09:00 +8°C° 0 mm 6 mps 739 mmHg 82%
    10:00 +9°C° 0 mm 6 mps 740 mmHg 76%
    11:00 +10°C° 0 mm 6 mps 741 mmHg 70%
    12:00 +11°C° 0 mm 6 mps 741 mmHg 70%
    13:00 +11°C° 0 mm 6 mps 742 mmHg 69%
    14:00 +13°C° 0 mm 5 mps 742 mmHg 69%
    15:00 +13°C° 0 mm 5 mps 742 mmHg 69%
    16:00 +14°C° 0 mm 5 mps 743 mmHg 68%
    17:00 +14°C° 0 mm 4 mps 743 mmHg 68%
    18:00 +13°C° 0 mm 4 mps 743 mmHg 73%
    19:00 +12°C° 0 mm 3 mps 744 mmHg 78%
    20:00 +11°C° 0 mm 3 mps 744 mmHg 83%
    21:00 +10°C° 0 mm 3 mps 744 mmHg 87%
    22:00 +9°C° 0 mm 2 mps 744 mmHg 91%
    23:00 +8°C° 0 mm 2 mps 745 mmHg 95%

    28 May, Tuesday

    Time Temperature Precipitation Wind Pressure Humidity
    00:00 +8°C° 0 mm 2 mps 745 mmHg 95%
    01:00 +8°C° 0 mm 2 mps 745 mmHg 96%
    02:00 +8°C° 0 mm 2 mps 745 mmHg 96%
    03:00 +8°C° 0 mm 2 mps 745 mmHg 94%
    04:00 +9°C° 0 mm 2 mps 745 mmHg 93%
    05:00 +9°C° 0 mm 3 mps 745 mmHg 91%
    06:00 +11°C° 0 mm 3 mps 745 mmHg 85%
    07:00 +13°C° 0 mm 3 mps 745 mmHg 78%
    08:00 +15°C° 0 mm 4 mps 745 mmHg 72%
    09:00 +18°C° 0 mm 4 mps 745 mmHg 67%
    10:00 +19°C° 0 mm 4 mps 745 mmHg 63%
    11:00 +20°C° 0 mm 5 mps 744 mmHg 58%
    12:00 +19°C° 0.1 mm 5 mps 744 mmHg 64%
    13:00 +19°C° 0.1 mm 5 mps 744 mmHg 69%
    14:00 +17°C° 0.1 mm 5 mps 744 mmHg 75%
    15:00 +16°C° 1.3 mm 5 mps 743 mmHg 81%
    16:00 +15°C° 1.3 mm 5 mps 743 mmHg 87%
    17:00 +14°C° 1.3 mm 5 mps 742 mmHg 93%
    18:00 +15°C° 0.5 mm 5 mps 742 mmHg 93%
    19:00 +16°C° 0.5 mm 5 mps 741 mmHg 93%
    20:00 +17°C° 0.5 mm 5 mps 741 mmHg 93%
    21:00 +17°C° 0.9 mm 5 mps 741 mmHg 94%
    22:00 +17°C° 0.9 mm 5 mps 741 mmHg 94%
    23:00 +18°C° 0.9 mm 4 mps 740 mmHg 95%
    Show more